Location: Boitzum
(52.1496°N, 9.6943°E)
Time: 00:37:49
(UTC+00:00)

Timation 2 Rocket - Pass Details

Date: 13 January 2026
Orbit: 906 x 1072 km, 70.0° (Epoch: 9 February)

Event Time Altitude Azimuth Distance (km) Brightness Sun altitude
Rises 05:49:02 0° 205° (SSW) 3,789 7.0 -14.0°
Reaches altitude 10° 05:51:40 10° 205° (SSW) 2,819 6.3 -13.6°
Maximum altitude 05:58:16 79° 119° (ESE) 1,021 4.2 -12.6°
Drops below altitude 10° 06:04:36 10° 34° (NE) 2,718 6.5 -11.7°
Sets 06:07:06 0° 34° (NE) 3,645 7.2 -11.3°
